Find Starlink 33745

NORAD ID: 63714 Int'l Des: 2025-087 Owner: SPXS Country: US Constellation: starlink operational
LEOCIRCULAR

リアルタイム位置

3D地球を読み込み中...

Starlink 33745について

説明を読み込み中...

次回通過

Passes for default location (London). Set your location on the main map for personalized predictions.

高度履歴

Loading altitude history...

軌道要素

1 63714U 25087T 26123.95272315 .00024564 00000-0 83821-3 0 9997
2 63714 53.1606 322.6481 0001084 72.8594 287.2526 15.30220425 57668
Epoch: May 3, 2026 • Age: 12 hours

現在のステータス

高度 475.5 km
速度 7.63 km/s
衛星直下点 21.28°N, 103.64°E
打ち上げ日 Apr 28, 2025
運用期間 1 years
タイプ internet

技術仕様

分類 Payload
質量 575.00 kg
乾燥質量 530.00 kg
総質量 575.00 kg
長さ 0.30 m
直径 4.10 m
スパン 29.00 m
形状 Box + pan
製造者 SPXS
バスタイプ Starlink V2MO
フェーズステータス In Orbit
所有者/国 SPXS/US

Most Searched